Wind_Speed
71 76 74 73 64 60 64 69 64 65 66 67 64 63 63 59 59 64 64 57 55 56 52 54 53 54 57 57 54 55 62 58 57 60 60 58 51 53 54 52 54 55 54 61 61
72 67 71 74 76 72 64 66 68 69 70 69 66 64 67 65 66 63 69 63 64 61 57 58 58 63 63 61 64 62 67 58 60 61 57 51 50 50 53 52 49 53 56 62 62
57 57 53 57 59 64 69 71 71 73 75 73 68 65 59 60 61 66 68 70 74 72 71 70 67 67 59 71 78 71 66 62 60 53 49 51 50 50 47 48 51 53 56 60 64
55 55 58 54 58 65 65 64 67 72 71 70 68 67 69 73 73 75 77 72 77 73 73 70 66 60 65 76 70 67 65 58 53 52 50 50 49 44 45 46 51 53 58 62 68
56 65 66 66 69 68 65 66 66 70 71 71 73 74 72 70 75 70 70 76 75 73 70 67 67 69 79 75 69 62 59 52 54 51 51 47 45 44 49 50 52 56 59 64 67
57 62 69 73 73 70 70 69 70 68 69 69 72 76 78 76 76 72 72 74 74 76 72 75 69 77 81 79 59 45 44 52 54 54 51 46 46 48 52 54 56 61 63 64 66
66 67 68 70 71 76 77 75 72 77 76 75 71 70 68 77 73 72 72 76 77 75 74 73 85 85 70 59 46 45 49 51 56 50 49 46 48 48 54 56 56 60 64 61 69
67 72 70 73 74 73 75 73 74 80 78 76 74 74 73 81 75 74 76 79 81 82 86 88 85 75 62 64 56 53 52 55 49 52 55 49 51 51 57 60 64 64 59 64 75
74 77 76 80 74 79 79 81 79 81 81 79 80 80 82 86 82 84 87 93 93 93 90 90 79 60 52 57 59 56 59 56 52 53 53 52 56 54 59 64 62 63 68 72 73
83 85 80 77 82 86 84 83 84 87 85 84 85 89 89 92 91 93 95 96 95 88 73 66 61 59 53 52 57 56 54 54 55 57 57 58 58 60 64 62 67 67 66 70 69
78 86 84 89 94 90 90 91 91 89 90 91 89 88 91 90 92 92 87 77 76 63 59 58 46 49 50 48 51 54 53 54 59 58 56 59 61 62 63 66 64 64 67 65 60
52 52 57 59 63 79 83 90 87 84 78 69 79 74 78 84 76 66 57 51 50 49 48 45 42 47 45 43 40 49 56 58 60 63 59 61 63 64 64 65 65 62 58 56 53
49 52 54 54 52 52 54 50 52 55 60 66 63 56 54 43 48 50 49 47 47 46 46 42 46 40 37 36 38 43 45 51 54 55 51 58 60 61 60 57 59 55 55 52 52
58 56 54 54 52 54 55 53 51 51 50 47 44 47 44 39 40 49 48 48 47 45 43 43 45 41 41 42 37 37 37 38 43 43 43 40 43 52 56 57 56 53 52 48 48
68 67 65 62 59 62 61 57 52 52 44 43 41 40 41 36 44 43 45 41 41 42 40 43 43 42 43 43 41 40 38 34 37 36 37 40 38 40 42 43 47 46 45 42 39
77 75 72 71 70 72 72 70 62 61 42 37 41 45 46 43 44 48 41 39 36 36 37 35 41 42 42 45 46 42 38 35 33 35 37 39 36 32 38 35 35 34 34 32 21
80 81 80 78 80 82 82 80 76 61 48 44 44 50 52 49 48 50 45 41 36 32 28 29 35 33 36 42 44 44 43 38 30 34 32 33 30 30 34 30 26 25 24 14 11
91 88 85 85 87 91 92 92 78 53 56 55 57 59 57 57 51 52 46 38 36 40 40 35 34 38 36 37 37 38 39 34 31 27 26 29 28 29 27 27 20 16 9 7 9
101 99 92 90 96 99 103 100 66 61 62 63 66 66 63 61 59 58 50 43 40 43 44 40 37 43 33 37 38 37 34 35 28 23 24 24 23 29 27 23 18 11 5 6 6
109 106 101 102 105 106 109 90 74 69 68 71 72 72 70 68 66 62 57 48 47 49 49 43 41 45 39 31 36 38 38 34 27 23 24 28 27 30 27 22 16 12 8 8 6
119 114 109 112 112 114 109 87 83 79 79 81 79 79 74 73 69 65 59 54 53 53 52 48 44 48 41 33 33 32 37 35 31 27 25 25 29 27 24 19 15 13 11 12 5
123 121 114 121 123 114 103 91 91 88 85 90 88 87 79 76 75 71 63 62 60 60 56 53 49 43 46 35 33 37 34 37 36 29 23 24 23 24 24 21 17 12 12 14 8
110 117 124 127 131 119 107 106 102 97 95 94 89 89 85 81 78 73 69 68 66 63 61 58 51 45 41 37 39 40 34 43 36 24 20 25 22 22 22 26 17 16 13 13 11
99 107 116 129 128 124 119 114 111 106 101 101 95 94 90 86 82 79 76 73 71 70 69 65 56 47 44 47 41 36 36 41 33 22 19 26 21 26 24 25 27 18 17 16 10
85 95 106 112 115 125 127 121 116 113 107 106 101 98 95 91 86 83 80 77 77 76 74 70 56 52 47 48 41 37 37 40 33 25 17 25 25 26 21 23 18 21 20 16 11
70 81 94 103 111 117 127 127 123 117 116 110 108 103 99 98 94 87 82 81 81 80 78 71 62 56 48 49 47 40 36 39 33 28 22 23 28 24 17 24 23 21 20 19 14
60 69 79 88 99 110 111 120 122 123 121 117 111 109 106 102 99 93 87 85 83 82 80 73 64 60 52 53 50 26 43 42 33 31 31 21 29 16 23 27 22 24 21 19 10
Wind_Direction
242 228 230 236 236 243 247 244 248 252 252 254 256 261 261 260 257 259 260 263 271 275 281 286 291 289 289 298 293 296 301 290 296 298 294 298 298 301 298 302 298 293 301 307 306
244 246 242 239 238 242 242 244 248 249 249 253 257 258 254 255 251 261 260 266 269 274 281 283 284 289 289 294 297 291 296 289 296 294 294 293 295 294 301 299 292 295 308 306 304
240 237 236 237 240 243 244 243 245 247 249 252 250 243 245 248 251 258 261 265 267 273 279 283 287 288 283 296 300 294 288 288 294 287 287 295 297 296 300 291 296 305 310 302 304
233 232 237 229 232 235 236 239 244 248 246 246 248 251 253 257 257 259 264 265 265 275 280 283 281 279 284 299 290 289 288 290 285 282 289 294 298 295 293 294 299 309 306 300 305
236 233 233 234 241 239 240 242 240 243 246 246 253 252 254 258 257 261 263 266 271 279 280 276 273 277 294 297 292 289 286 280 280 282 291 298 290 288 290 295 297 306 306 302 304
230 231 236 239 239 238 239 240 240 241 243 246 250 252 253 255 261 263 268 269 271 273 272 274 280 289 292 298 291 286 275 274 278 282 286 290 285 285 286 292 297 302 303 305 304
233 232 232 233 235 240 242 241 242 248 247 248 246 248 248 261 263 261 267 269 274 276 278 278 286 291 292 286 284 277 279 276 279 281 287 283 283 283 288 294 296 299 307 302 303
239 239 240 242 240 240 239 239 242 242 244 243 247 248 258 260 262 262 264 272 272 278 282 284 287 286 281 279 274 277 276 276 274 277 285 283 286 286 289 294 298 302 303 299 306
244 240 244 243 246 244 244 245 247 247 246 250 254 253 256 260 263 267 274 277 281 282 282 286 283 280 277 274 269 271 274 276 274 277 281 283 286 289 292 295 298 298 300 305 309
249 246 250 248 251 252 253 253 252 252 257 258 260 261 259 267 271 272 276 278 281 281 279 276 277 277 271 266 267 267 264 268 270 273 279 280 280 284 289 289 290 298 302 306 309
256 252 250 252 251 251 255 256 256 259 263 262 264 266 267 271 274 277 276 276 274 273 274 277 276 270 268 273 270 261 263 267 271 275 278 280 284 284 284 287 293 295 298 303 308
253 252 251 254 256 254 257 259 259 259 262 265 266 267 268 270 272 267 265 270 274 272 275 277 264 268 275 276 275 265 261 262 267 269 271 277 278 281 285 286 288 293 299 303 306
250 249 251 253 252 253 254 252 251 251 255 257 260 265 261 260 261 265 268 272 270 273 275 276 271 276 275 276 274 268 264 262 267 274 277 279 281 281 283 286 288 295 298 300 305
249 250 249 249 248 251 251 248 247 248 247 252 252 259 265 267 272 261 270 272 275 274 276 275 277 279 277 276 275 278 272 274 275 280 285 289 284 284 282 284 289 292 294 299 304
249 246 245 246 246 247 249 247 244 244 240 247 258 259 266 263 255 265 266 273 269 274 279 272 279 276 276 276 278 276 281 283 284 288 290 290 290 290 294 290 287 292 295 299 302
255 251 246 244 244 245 246 246 241 240 239 239 252 255 255 253 250 257 264 269 272 277 275 274 276 278 276 276 275 277 282 287 291 284 284 290 299 294 290 298 295 292 294 299 304
252 251 250 247 245 244 244 244 240 239 238 236 238 247 251 252 249 255 256 261 268 270 264 271 281 285 279 278 282 280 281 280 284 285 294 298 293 283 295 293 297 298 301 299 301
252 250 249 248 247 245 243 242 239 241 240 239 240 243 247 250 252 253 253 257 263 258 259 263 273 277 284 286 283 281 280 282 276 292 293 297 295 289 291 292 291 293 298 294 307
247 247 245 248 247 246 247 244 243 241 239 240 240 240 243 246 249 251 252 251 256 258 260 263 267 271 279 280 286 284 278 281 281 277 281 293 300 288 293 297 291 272 251 282 268
246 245 243 243 245 247 248 247 245 241 235 241 242 242 242 245 245 248 251 251 252 255 261 264 269 274 275 285 289 284 281 276 281 271 272 282 287 289 299 283 264 244 227 237 270
243 242 241 242 242 242 245 245 244 241 238 237 241 242 241 244 245 247 250 249 253 258 259 262 266 271 276 287 291 287 282 275 276 272 272 282 289 298 294 265 245 229 220 225 272
238 239 239 240 242 243 244 244 241 239 237 239 241 242 241 241 243 245 248 249 250 252 256 257 262 268 275 284 292 295 280 280 271 268 273 279 297 300 291 275 247 211 224 224 250
238 235 235 236 242 242 242 242 239 237 237 236 239 240 241 242 244 246 248 249 250 252 254 256 258 260 273 281 279 286 287 276 275 272 270 274 291 293 286 282 237 221 205 213 231
239 236 235 233 238 237 238 237 237 236 235 236 235 239 241 242 243 245 247 249 251 251 252 253 254 259 264 264 271 287 290 274 272 257 259 274 293 294 292 260 261 209 206 218 216
239 236 235 234 234 236 236 236 235 235 234 235 234 236 240 242 243 243 244 246 249 250 252 254 253 254 257 265 269 280 287 279 271 246 245 267 285 280 291 257 218 211 221 205 221
237 236 234 231 230 231 232 233 233 232 234 234 234 234 237 240 241 241 242 243 245 248 250 252 252 253 254 262 268 269 288 285 270 243 243 254 267 270 263 245 210 209 212 213 196
237 233 233 232 230 231 231 231 231 232 231 233 231 231 233 235 238 239 238 241 243 246 249 251 251 253 254 257 262 284 282 274 259 235 240 250 253 265 272 251 224 214 220 217 195
Height
10821 10825 10831 10833 10838 10842 10846 10851 10854 10855 10857 10859 10862 10865 10866 10866 10867 10863 10855 10863 10859 10859 10859 10861 10862 10861 10858 10857 10857 10854 10850 10847 10843 10838 10833 10831 10826 10821 10818 10816 10810 10804 10803 10798 10790
10809 10813 10819 10823 10828 10832 10835 10840 10844 10846 10847 10848 10852 10855 10856 10857 10858 10852 10844 10856 10850 10851 10851 10851 10852 10851 10848 10848 10846 10843 10838 10837 10832 10830 10825 10819 10816 10811 10809 10805 10800 10798 10795 10788 10781
10800 10803 10808 10812 10817 10822 10825 10827 10828 10833 10835 10839 10843 10846 10846 10846 10845 10836 10839 10845 10841 10841 10840 10842 10843 10839 10838 10839 10836 10833 10826 10826 10820 10818 10813 10811 10808 10803 10800 10795 10789 10788 10785 10777 10771
10792 10795 10798 10801 10804 10807 10810 10814 10816 10822 10825 10829 10833 10836 10837 10834 10830 10828 10835 10833 10830 10830 10831 10831 10830 10829 10827 10826 10826 10822 10817 10815 10811 10809 10805 10801 10798 10795 10792 10788 10781 10779 10775 10768 10763
10783 10786 10789 10792 10797 10799 10801 10802 10805 10810 10816 10818 10822 10825 10827 10824 10813 10831 10825 10820 10820 10820 10822 10820 10816 10817 10816 10813 10814 10810 10807 10803 10801 10801 10796 10793 10789 10787 10783 10780 10774 10771 10767 10760 10754
10772 10775 10778 10781 10784 10786 10787 10789 10794 10798 10802 10807 10810 10813 10815 10803 10809 10823 10813 10808 10807 10809 10810 10809 10807 10808 10803 10799 10797 10796 10796 10794 10792 10791 10788 10784 10781 10780 10775 10772 10768 10764 10759 10752 10745
10762 10764 10766 10769 10771 10774 10776 10779 10783 10787 10791 10797 10800 10802 10804 10781 10798 10807 10801 10795 10798 10798 10800 10798 10797 10797 10790 10786 10786 10784 10785 10785 10783 10780 10778 10776 10771 10769 10766 10763 10760 10756 10751 10744 10736
10748 10753 10755 10758 10760 10762 10764 10766 10772 10775 10778 10784 10786 10789 10787 10774 10788 10784 10789 10789 10787 10789 10788 10788 10787 10783 10779 10778 10776 10775 10775 10775 10772 10769 10767 10767 10762 10762 10755 10752 10750 10747 10742 10736 10729
10735 10737 10741 10744 10747 10748 10749 10753 10758 10761 10764 10769 10772 10774 10770 10764 10773 10774 10778 10773 10775 10772 10771 10773 10773 10770 10767 10766 10766 10765 10764 10763 10762 10759 10758 10757 10752 10753 10748 10743 10739 10736 10734 10727 10721
10723 10724 10725 10729 10732 10733 10733 10737 10744 10746 10749 10752 10755 10758 10756 10756 10762 10761 10761 10762 10761 10757 10756 10754 10756 10757 10751 10751 10754 10756 10757 10755 10752 10748 10749 10747 10745 10743 10739 10733 10731 10728 10725 10719 10713
10706 10708 10711 10712 10716 10716 10714 10722 10726 10731 10732 10732 10740 10740 10741 10745 10749 10746 10744 10745 10745 10741 10739 10744 10746 10740 10738 10740 10746 10746 10747 10743 10740 10737 10741 10736 10735 10731 10730 10726 10721 10719 10717 10713 10707
10690 10689 10690 10693 10695 10697 10694 10705 10709 10714 10714 10718 10725 10727 10728 10734 10736 10729 10729 10730 10731 10728 10728 10734 10730 10729 10731 10733 10733 10733 10735 10735 10731 10728 10736 10730 10726 10721 10720 10714 10710 10712 10709 10705 10700
10675 10675 10676 10678 10681 10681 10679 10686 10690 10694 10699 10704 10711 10712 10714 10724 10718 10714 10714 10720 10719 10718 10719 10723 10717 10723 10721 10722 10722 10723 10723 10722 10723 10720 10725 10723 10718 10711 10707 10705 10698 10704 10700 10698 10694
10660 10661 10663 10664 10669 10665 10665 10672 10677 10682 10689 10696 10703 10701 10704 10710 10708 10697 10704 10707 10710 10708 10711 10711 10710 10713 10712 10712 10714 10713 10711 10715 10714 10714 10712 10711 10708 10701 10696 10695 10693 10693 10692 10691 10688
10639 10642 10645 10648 10652 10649 10650 10655 10663 10667 10682 10686 10691 10692 10692 10699 10689 10692 10693 10700 10700 10699 10704 10699 10701 10703 10704 10702 10703 10702 10704 10706 10705 10705 10702 10696 10697 10693 10688 10687 10684 10685 10684 10683 10682
10618 10621 10625 10628 10631 10629 10630 10635 10646 10651 10676 10684 10682 10680 10681 10686 10684 10680 10688 10690 10691 10694 10694 10691 10691 10693 10693 10692 10692 10693 10694 10696 10697 10695 10691 10688 10690 10684 10678 10679 10677 10677 10677 10678 10677
10592 10595 10603 10607 10606 10605 10605 10610 10622 10647 10668 10674 10673 10668 10665 10671 10674 10672 10680 10685 10688 10687 10686 10684 10682 10685 10683 10681 10684 10685 10687 10688 10689 10684 10683 10682 10680 10677 10673 10671 10672 10672 10673 10674 10671
10561 10566 10576 10583 10580 10576 10577 10581 10608 10651 10652 10657 10656 10653 10654 10654 10663 10662 10670 10680 10680 10679 10677 10681 10679 10673 10677 10677 10676 10678 10679 10679 10679 10681 10677 10675 10674 10671 10668 10667 10668 10668 10669 10670 10667
10522 10533 10548 10553 10546 10548 10545 10554 10620 10632 10636 10635 10635 10638 10640 10642 10646 10649 10661 10669 10670 10669 10669 10670 10672 10667 10673 10670 10670 10671 10671 10670 10673 10674 10671 10668 10668 10664 10664 10665 10665 10664 10665 10665 10665
10486 10498 10514 10515 10513 10515 10511 10565 10599 10611 10615 10613 10615 10620 10624 10625 10630 10636 10645 10658 10658 10657 10656 10662 10663 10657 10662 10666 10664 10665 10665 10666 10666 10666 10664 10663 10662 10658 10660 10660 10659 10659 10661 10663 10664
10444 10459 10483 10474 10476 10478 10499 10560 10573 10584 10587 10588 10592 10594 10608 10609 10616 10624 10636 10641 10643 10643 10645 10650 10654 10648 10654 10660 10657 10658 10659 10658 10659 10658 10658 10658 10655 10654 10654 10654 10653 10655 10658 10661 10663
10400 10421 10447 10438 10437 10460 10495 10534 10539 10553 10562 10560 10569 10574 10588 10594 10598 10608 10624 10624 10623 10626 10632 10638 10642 10648 10643 10651 10652 10649 10651 10651 10652 10651 10654 10651 10653 10650 10652 10651 10650 10652 10655 10658 10661
10358 10383 10399 10403 10394 10441 10479 10487 10498 10519 10531 10539 10548 10553 10564 10576 10585 10596 10605 10606 10606 10611 10618 10623 10634 10638 10642 10644 10640 10641 10646 10642 10647 10649 10648 10645 10648 10647 10649 10650 10648 10651 10653 10656 10658
10326 10339 10355 10367 10376 10409 10432 10448 10465 10482 10500 10508 10526 10532 10544 10555 10570 10577 10586 10589 10591 10594 10598 10606 10621 10633 10636 10629 10633 10638 10638 10636 10641 10644 10642 10639 10642 10642 10645 10648 10649 10648 10651 10653 10656
10292 10307 10317 10333 10357 10379 10389 10416 10433 10450 10473 10481 10502 10513 10522 10536 10548 10556 10564 10572 10570 10575 10579 10592 10613 10617 10623 10621 10626 10630 10631 10630 10636 10638 10638 10634 10637 10638 10640 10640 10645 10646 10647 10649 10651
10263 10272 10281 10304 10320 10333 10347 10373 10400 10421 10434 10453 10472 10491 10501 10508 10517 10534 10545 10551 10554 10557 10563 10580 10598 10604 10612 10612 10614 10620 10627 10625 10630 10634 10633 10632 10631 10632 10636 10638 10642 10642 10645 10647 10648
10237 10249 10258 10273 10292 10306 10329 10353 10373 10387 10402 10417 10441 10459 10471 10484 10494 10509 10522 10530 10538 10544 10551 10566 10585 10591 10602 10602 10604 10625 10615 10615 10619 10627 10625 10628 10625 10631 10633 10636 10640 10642 10644 10647 10646